Temp
22 19 19 22 22 22 23 22 23 23 23 22 21 21 21 20 19 19 19 18 19 19 18 19 18 18 18 18 19 20 22 22
20 20 19 19 19 21 22 22 22 22 23 22 21 20 20 20 19 19 19 19 19 19 18 18 18 18 18 18 19 20 22 22
20 20 20 20 19 19 19 20 21 22 22 21 19 18 19 19 19 19 19 19 19 19 18 18 18 18 18 18 19 21 21 22
19 20 21 20 20 19 19 19 18 19 19 18 19 20 20 20 19 19 18 19 19 18 18 18 18 18 17 18 20 20 21 21
21 19 20 20 19 18 19 18 19 20 20 18 20 21 20 20 18 17 17 18 17 17 17 18 20 19 18 19 20 19 20 20
22 20 20 19 18 18 21 19 19 20 20 19 20 20 20 21 18 18 18 18 19 19 18 19 19 20 19 19 19 20 20 20
24 22 20 20 19 18 21 21 21 21 20 19 21 21 20 20 19 19 19 19 19 20 19 19 19 19 19 18 19 19 19 20
25 22 21 19 19 18 21 21 21 21 20 20 20 21 20 20 20 20 19 19 20 20 20 19 19 19 18 18 19 18 18 19
26 22 21 20 20 18 19 21 21 21 20 19 20 20 20 20 20 20 19 18 19 19 19 19 19 19 19 18 18 18 18 18
27 23 21 20 20 19 19 21 21 21 21 20 19 20 20 20 20 19 19 18 19 19 18 19 19 19 19 19 19 19 18 17
28 25 22 21 20 20 19 20 20 21 21 21 20 20 20 20 20 20 18 17 18 18 18 18 19 19 19 19 19 19 18 18
26 26 23 21 20 19 18 18 19 20 21 21 20 20 20 20 21 20 17 16 16 17 16 17 19 19 19 19 18 19 18 18
25 26 24 22 20 19 18 18 18 20 20 21 21 20 20 19 20 18 16 16 15 16 16 16 18 19 19 18 18 17 18 18
25 26 25 22 21 20 19 19 19 18 20 21 21 19 19 19 19 17 16 15 15 16 17 17 18 18 19 18 19 17 17 17
25 25 25 23 22 21 20 20 19 18 19 20 20 20 19 19 18 16 16 15 15 16 16 17 18 18 18 19 21 21 19 18
25 25 25 24 22 22 20 20 20 20 19 19 19 19 18 18 17 16 16 15 16 15 16 16 17 17 17 19 21 23 21 19
24 24 24 24 22 23 22 21 21 21 20 19 19 18 17 17 17 16 16 16 17 16 15 15 17 18 17 18 19 19 21 23
24 23 24 24 22 21 22 22 22 22 21 21 19 18 17 17 16 16 16 16 16 15 15 15 16 18 17 18 20 20 21 22
19 22 23 23 23 22 22 22 21 22 22 21 20 18 17 17 16 16 16 16 16 15 15 14 15 17 17 18 19 20 21 21
13 16 21 23 22 22 22 22 22 21 22 22 21 19 18 17 16 16 16 16 16 15 15 15 14 15 17 17 18 19 19 21
Height
764 764 767 770 774 777 779 784 791 794 798 804 807 811 815 820 823 826 830 833 835 838 840 842 845 847 850 853 854 855 858 859
762 764 767 770 773 777 779 782 789 794 796 802 807 812 815 820 824 827 830 833 836 839 842 844 847 849 851 854 857 859 859 861
761 762 766 769 771 776 779 782 786 793 797 801 807 813 817 821 826 827 831 834 837 841 844 846 848 852 854 856 859 860 861 863
757 761 764 766 769 771 777 782 787 793 798 801 806 812 817 822 826 828 832 835 839 842 846 848 851 854 856 858 860 861 863 865
755 758 762 763 766 769 773 778 784 791 796 798 804 809 814 820 824 828 834 837 842 845 848 850 852 854 856 858 860 862 863 865
748 751 756 760 762 767 769 776 779 786 791 795 799 804 809 815 820 826 831 836 840 844 847 850 852 854 856 858 860 862 863 865
740 746 749 752 756 761 765 769 775 781 787 790 794 800 804 810 817 822 826 833 837 840 845 848 851 854 856 858 860 862 864 866
732 738 743 746 749 753 758 762 770 778 783 785 788 794 799 806 812 817 822 828 834 838 842 846 849 852 855 857 860 862 864 866
722 730 735 739 741 748 752 757 764 770 778 781 782 788 793 799 806 811 817 823 829 835 840 844 847 850 853 856 859 861 864 866
714 721 726 730 735 741 745 752 757 763 771 777 779 781 787 793 799 805 811 818 825 830 835 840 844 848 851 854 857 860 862 865
703 713 719 723 727 734 738 743 749 755 765 771 775 777 781 787 792 798 803 812 819 825 831 836 841 845 849 852 855 858 861 863
694 699 709 715 719 727 732 737 744 746 756 761 768 773 777 781 788 793 797 805 813 820 826 832 837 842 847 850 853 856 858 861
687 688 698 706 711 716 722 726 733 737 741 752 759 765 770 775 781 787 791 797 803 813 820 828 835 839 844 849 853 855 856 858
678 680 686 695 702 706 711 716 722 727 728 740 749 757 763 769 772 777 784 791 797 805 813 821 830 834 837 845 848 854 853 854
667 671 676 684 693 700 707 713 720 726 729 734 740 746 753 761 767 770 776 783 791 797 806 814 821 827 832 832 835 833 842 848
657 661 666 673 682 687 694 699 705 710 714 720 728 737 745 752 759 763 770 776 786 792 797 807 814 817 824 825 824 823 828 839
647 651 657 662 671 675 680 688 696 701 708 715 721 728 734 741 747 754 760 768 775 782 793 801 804 809 811 815 819 823 821 822
635 644 649 656 662 668 673 678 685 692 699 705 712 718 722 729 736 742 749 757 767 773 781 790 795 800 806 809 810 811 812 815
642 639 643 649 655 660 665 671 677 681 686 693 701 707 712 717 724 732 740 746 754 763 770 779 785 790 795 799 804 805 810 813
650 645 643 645 649 653 658 663 667 673 676 682 689 696 700 706 713 719 729 737 746 753 760 768 777 782 786 790 794 799 803 805
Wind_Speed
13 17 21 26 29 32 35 40 43 43 42 41 40 38 36 33 29 28 26 26 25 27 27 26 25 24 22 20 18 17 14 15
13 15 18 20 23 31 34 40 43 44 43 41 39 36 36 33 30 28 28 26 26 27 27 26 24 23 22 18 17 17 13 14
12 15 18 20 22 28 33 36 43 45 42 40 36 27 31 29 26 28 28 27 28 28 27 25 25 23 21 19 16 10 13 12
14 16 19 21 22 28 30 32 35 37 33 32 29 26 29 27 25 28 28 28 30 29 27 25 23 19 18 17 10 13 12 11
17 18 19 22 23 32 29 32 32 34 33 33 27 27 28 27 23 26 23 28 26 26 25 21 18 18 18 14 12 13 12 11
21 23 22 24 24 28 31 28 30 34 34 34 30 29 30 28 24 26 25 28 27 26 23 19 17 17 17 14 13 11 12 12
25 25 26 27 27 33 33 32 33 34 35 36 32 31 31 30 27 28 27 28 28 27 23 21 19 17 17 15 14 11 12 11
28 29 28 28 30 38 35 34 34 34 34 37 36 34 33 31 30 29 28 29 27 26 24 22 20 18 17 15 14 12 12 11
30 32 33 33 34 35 36 34 35 36 35 36 39 37 36 34 32 31 30 30 28 26 23 21 19 18 18 16 14 13 12 12
31 34 36 37 36 36 36 34 35 36 34 36 39 40 37 36 34 32 31 31 30 28 26 24 21 20 19 17 15 14 13 13
34 36 36 38 36 36 36 36 35 35 34 34 38 40 39 38 35 33 34 32 31 29 27 24 22 20 19 17 16 15 14 13
36 35 38 39 37 36 35 34 36 35 36 37 37 39 39 39 35 33 36 33 30 29 27 23 22 21 18 17 16 15 15 14
37 35 38 38 36 36 34 36 37 39 39 39 39 41 41 40 36 34 38 35 35 31 25 25 22 22 20 17 14 14 15 16
34 36 39 40 37 38 37 40 39 42 44 40 41 40 41 42 39 39 37 34 36 38 34 28 27 27 23 19 7 11 18 19
34 36 39 40 39 37 34 33 30 31 32 35 39 43 44 42 41 42 39 37 39 42 36 34 30 30 29 16 7 7 16 20
35 37 39 39 41 37 37 32 30 34 37 40 40 43 44 45 43 45 42 38 39 43 44 41 33 33 35 33 16 10 8 6
33 35 38 38 41 40 38 38 35 35 35 36 39 42 45 47 47 49 48 44 48 44 41 40 41 33 38 34 26 17 16 13
22 31 33 34 38 42 37 38 35 34 35 34 37 39 43 49 50 51 52 52 46 45 45 43 41 37 33 33 34 28 21 14
6 17 28 31 35 38 41 40 41 38 38 38 37 38 37 43 50 50 51 52 53 48 45 44 45 43 38 37 33 33 25 23
12 9 21 27 32 34 37 40 40 42 40 37 38 38 38 43 49 50 51 51 49 49 48 48 43 43 40 37 35 33 32 25
Wind_Direction
182 185 194 204 204 200 200 198 194 190 187 185 181 179 177 177 175 172 172 174 169 164 162 159 158 156 153 153 144 137 140 137
184 182 187 190 194 201 201 197 196 193 189 186 182 180 178 179 178 176 177 175 168 166 163 161 160 161 158 156 151 138 146 145
189 188 191 191 190 193 196 196 196 194 191 187 179 176 177 181 174 181 180 176 169 167 165 161 158 158 157 152 145 151 148 149
197 195 195 188 190 186 183 184 188 187 182 180 177 177 177 179 181 185 182 177 172 169 167 162 155 158 159 156 159 155 152 151
204 197 196 187 185 184 181 183 185 188 186 182 180 179 178 178 180 181 178 178 170 168 167 162 168 168 169 171 165 158 157 153
210 200 195 190 185 187 186 190 187 192 189 185 182 179 179 181 180 177 178 178 178 176 177 177 177 175 175 173 167 163 159 153
213 204 198 192 189 189 193 191 193 194 191 187 187 186 182 184 182 179 181 182 184 184 185 184 180 179 178 174 169 166 161 156
214 207 202 195 194 193 196 189 196 198 197 192 187 188 184 185 182 182 182 185 187 187 188 187 182 181 179 178 173 168 164 160
214 208 201 200 197 197 193 195 195 199 203 197 190 189 186 185 184 183 183 184 185 187 188 187 184 183 182 180 178 173 170 165
220 212 205 200 198 196 194 199 196 199 203 203 197 191 190 185 186 184 182 182 186 187 187 186 186 186 183 183 183 181 178 173
231 216 210 205 200 199 197 196 198 200 204 207 203 198 193 190 188 185 180 182 186 187 187 187 185 188 186 186 187 187 184 181
235 215 215 207 199 199 196 196 204 194 207 208 206 202 199 194 192 186 179 179 183 184 183 184 187 187 190 189 192 192 191 191
233 225 213 208 199 194 192 196 200 200 200 209 206 203 200 196 193 187 182 181 180 179 177 177 190 191 185 189 196 200 200 200
234 228 214 210 204 201 196 200 200 204 200 204 206 203 202 196 192 187 184 178 180 185 186 188 199 193 191 180 193 207 215 209
231 227 219 211 209 207 205 204 205 204 205 205 203 204 200 198 195 188 183 180 183 191 189 190 192 193 196 183 176 211 187 210
234 227 220 210 204 200 200 198 198 204 200 201 201 203 200 197 194 190 188 185 187 194 196 198 192 193 198 210 214 202 180 177
228 225 220 210 205 211 203 204 206 207 206 206 202 202 198 196 193 192 192 193 198 198 199 200 202 200 201 200 207 203 211 188
224 215 216 214 209 209 206 206 205 205 206 205 204 203 197 197 194 194 195 196 199 199 200 202 203 207 206 205 206 203 199 206
285 222 220 217 216 214 213 213 212 211 208 206 204 202 196 197 194 195 196 196 199 200 198 202 203 206 208 210 211 214 213 213
23 7 233 230 221 220 219 219 217 217 214 209 207 203 201 195 194 194 196 197 198 199 202 206 206 210 212 209 213 215 213 214